Regional Weather Roundup
Issued by NWS

Home | Current Version | Previous Version | Graphics & Text | Print | Product List | Glossary On
Versions: 1 2 3 4 5 6 7 8 9 10 11 12 13 14 15 16 17 18 19 20 21 22 23 24 25 26 27 28 29 30 31 32 33 34 35 36 37 38 39 40 41 42 43 44 45 46 47 48 49 50
508
ASUS45 KBOU 052307
RWRCO

WEATHER ROUNDUP FOR COLORADO
NATIONAL WEATHER SERVICE DENVER/BOULDER CO
400 PM MST FRI FEB 05 2016

NOTE: "FAIR" INDICATES FEW OR NO CLOUDS BELOW 12000 FEET WITH NO
SIGNIFICANT WEATHER AND/OR OBSTRUCTIONS TO VISIBILITY.

COZ001>005-013-030-031-060000-
...NORTHWEST COLORADO...

CITY           SKY/WX    TMP DP  RH WIND       PRES   REMARKS
CRAIG          MIX PCPN  19  13  77 CALM      30.45R
HAYDEN         SUNNY     19  10  68 NE7       30.42F WCI  10
MEEKER         SUNNY     22  15  75 CALM      30.43S
MOUNT WERNER   NOT AVBL
STEAMBOAT SPGS SUNNY     23  13  65 CALM      30.42S
WALDEN         SUNNY     18   7  62 S14G20    30.34R WCI   4
$$

COZ006>008-011-060000-
...WEST CENTRAL VALLEYS...

CITY           SKY/WX    TMP DP  RH WIND       PRES   REMARKS
GRAND JUNCTION SUNNY     22  14  71 NE5       30.52F WCI  16
MONTROSE       SUNNY     26  13  57 CALM      30.50F
EAGLE          SUNNY     27  10  50 CALM      30.44F
RIFLE          SUNNY     26  11  52 CALM      30.49R
DELTA          SUNNY     30  16  54 CALM      30.52S
NUCLA          SUNNY     30  16  55 CALM      30.49F
$$

COZ017>023-064>068-060000-
...SOUTHWEST COLORADO...

CITY           SKY/WX    TMP DP  RH WIND       PRES   REMARKS
DURANGO        SUNNY     26  11  52 NE8       30.36S WCI  18
CORTEZ         SUNNY     34  11  38 NW15G23   30.40S WCI  24
PAGOSA SPRINGS SUNNY     29   8  40 S7        30.34R WCI  22
TELLURIDE      CLOUDY    24   0  35 W9        30.36R WCI  14
WOLF CREEK PAS SUNNY     12  -9  37 NE8       30.29S WCI   1
$$

COZ009-010-012-014-032>034-037-058>063-060000-
...CENTRAL COLORADO...

CITY           SKY/WX    TMP DP  RH WIND       PRES   REMARKS
ASPEN          CLOUDY    22   7  52 NW5       30.38S WCI  16
BUENA VISTA    CLOUDY    27   5  39 NW24G31   30.26S WCI  12
COPPER MTN     CLOUDY     9   1  72 W13G24    30.25R WCI  -7
BERTHOUD PASS  CLOUDY     1  -9  60 MISG      30.20R
COTTONWOOD PAS CLOUDY    27  -4  26 W16G28    30.24R WCI  14
GUNNISON       CLOUDY     9  -2  61 NE8       30.43S WCI  -4
KREMMLING      CLOUDY    12   5  73 CALM      30.41F
LEADVILLE      CLOUDY    17   2  51 N12G17    30.27R WCI   4
MONARCH PASS     N/A      5   1  85 MISG      30.33S
SALIDA         CLOUDY    32   6  32 N5        30.35S WCI  27
SUNLIGHT       FLURRIES N/A N/A N/A CALM        N/A
WILKERSON PASS CLOUDY    12  -2  52 NW10G22   30.21S WCI  -1
$$

COZ069>075-060000-
...SAN LUIS VALLEY/SANGRE DE CRISTO MOUNTAINS...

CITY           SKY/WX    TMP DP  RH WIND       PRES   REMARKS
ALAMOSA        SUNNY     30   3  31 NW9       30.29S WCI  22
LA VETA PASS   SUNNY     21   5  49 MISG      30.21F
SAGUACHE       SUNNY     28   7  40 NW17G24   30.30R WCI  16
$$

COZ035-036-038>040-060000-
...NORTHERN COLORADO FRONT RANGE...

CITY           SKY/WX    TMP DP  RH WIND       PRES   REMARKS
DENVER INTL AP MOSUNNY   29  14  53 SE7       30.26S WCI  22
DMNS CITY PARK   N/A     33  10  37 E14       30.26S WCI  24
AURORA         MOSUNNY   30  14  51 SE6       30.27S WCI  24
FRONT RANGE AP NOT AVBL
ERIE MUNI ARPT SUNNY     35  13  41 SE6       30.26S WCI  30
BOULDER MUN AP SUNNY     36  12  38 NE5       30.26S
CENTENNIAL     MOSUNNY   30  10  43 E9        30.26R WCI  22
BROOMFIELD     MOSUNNY   34  12  40 E7        30.26S WCI  28
FORT COLLINS   SUNNY     32  16  51 S7        30.27S WCI  26
LONGMONT       SUNNY     39  12  33 SE5       30.28F
$$

COZ041-046-047-076>085-087-088-060000-
...PIKES PEAK/PALMER DIVIDE AND SOUTHERN FOOTHILLS...

CITY           SKY/WX    TMP DP  RH WIND       PRES   REMARKS
COLO. SPRINGS  MOSUNNY   30   8  39 E5        30.28R WCI  25
A. F. ACADEMY  SUNNY     29   8  42 SE6       30.25R WCI  22
SCHRIEVER AFB  FAIR      28   9  45 N6        30.28R WCI  21
ELLICOTT       NOT AVBL
FALCON         SUNNY     28   7  41 NE3       30.26S
FORT CARSON    SUNNY     30  14  51 SE6       30.25S WCI  24
LIMON          SUNNY     24  14  65 NW8       30.28R WCI  15
MONUMENT HILL  SUNNY     21   9  58 E5        30.25S WCI  15
TRINIDAD       SUNNY     35  15  44 NE9       30.29S WCI  28
$$

COZ042>045-048>051-090-091-060000-
...NORTHEAST COLORADO...

CITY           SKY/WX    TMP DP  RH WIND       PRES   REMARKS
GREELEY ARPT   SUNNY     36  16  44 CALM      30.27S
AKRON          SUNNY     28  18  66 NW14      30.27R WCI  17
BURLINGTON     SUNNY     31  19  61 NW15      30.27R WCI  20
WRAY           SUNNY     36  23  59 NW20      30.26S
STERLING       SUNNY     32  21  64 NW15      30.27S WCI  22
HOLYOKE        SUNNY     37  25  60 NW15G24   30.26R
FORT MORGAN    SUNNY     31  19  61 N13       30.28F WCI  22
$$

COZ086-089-092>099-060000-
...SOUTHEAST COLORADO...

CITY           SKY/WX    TMP DP  RH WIND       PRES   REMARKS
PUEBLO         SUNNY     38  15  39 S10       30.29S
LA JUNTA       SUNNY     38  18  44 N10       30.32S
LAMAR          SUNNY     42  18  37 N14       30.29S
SPRINGFIELD      N/A     37  19  48 N21       30.28S
$$




USA.gov is the U.S. government's official web portal to all federal, state and local government web resources and services.